When you browse on this site, cookies collect data to enhance your experience and personalize the content and advertising you see.
Visit our Privacy Policy to learn more. By continuing to use the site, you agree to this use of cookies and data.
  • In France
  • List of Countries
  • For 7 days
  • Water Temperature
  • Weather Map
  • Weather Widgets
  • user-avatar
    Login

    Hourly Weather Campo Grande

    Today, 22 November, Friday

    Time Temperature Precipitation Wind Pressure Humidity
    00:00 +27°C° 0 mm 3 mps 708 mmHg 51%
    01:00 +26°C° 0 mm 3 mps 707 mmHg 53%
    02:00 +26°C° 0 mm 3 mps 707 mmHg 56%
    03:00 +25°C° 0 mm 3 mps 707 mmHg 58%
    04:00 +25°C° 0 mm 3 mps 707 mmHg 60%
    05:00 +25°C° 0 mm 3 mps 707 mmHg 62%
    06:00 +27°C° 0 mm 3 mps 708 mmHg 55%
    07:00 +30°C° 0 mm 3 mps 709 mmHg 47%
    08:00 +34°C° 0 mm 3 mps 710 mmHg 39%
    09:00 +35°C° 0 mm 3 mps 710 mmHg 35%
    10:00 +37°C° 0 mm 2 mps 709 mmHg 31%
    11:00 +39°C° 0 mm 1 mps 709 mmHg 26%
    12:00 +38°C° 0 mm 2 mps 708 mmHg 28%
    13:00 +37°C° 0 mm 2 mps 708 mmHg 30%
    14:00 +36°C° 0 mm 2 mps 707 mmHg 32%
    15:00 +35°C° 0 mm 2 mps 707 mmHg 33%
    16:00 +35°C° 0 mm 2 mps 707 mmHg 34%
    17:00 +33°C° 0 mm 1 mps 707 mmHg 35%
    18:00 +32°C° 0 mm 1 mps 707 mmHg 37%
    19:00 +31°C° 0 mm 1 mps 707 mmHg 39%
    20:00 +30°C° 0 mm 1 mps 707 mmHg 41%
    21:00 +29°C° 0 mm 1 mps 707 mmHg 42%
    22:00 +29°C° 0 mm 1 mps 708 mmHg 42%
    23:00 +29°C° 0 mm 1 mps 708 mmHg 43%

    Tomorrow, 23 November, Saturday

    Time Temperature Precipitation Wind Pressure Humidity
    00:00 +28°C° 0 mm 1 mps 707 mmHg 44%
    01:00 +28°C° 0 mm 1 mps 707 mmHg 46%
    02:00 +27°C° 0 mm 1 mps 707 mmHg 48%
    03:00 +26°C° 0 mm 1 mps 707 mmHg 50%
    04:00 +26°C° 0 mm 1 mps 707 mmHg 52%
    05:00 +25°C° 0 mm 1 mps 707 mmHg 54%
    06:00 +28°C° 0 mm 1 mps 708 mmHg 48%
    07:00 +31°C° 0 mm 2 mps 709 mmHg 42%
    08:00 +34°C° 0 mm 3 mps 710 mmHg 35%
    09:00 +36°C° 0 mm 3 mps 709 mmHg 32%
    10:00 +37°C° 0 mm 3 mps 709 mmHg 29%
    11:00 +39°C° 0 mm 3 mps 709 mmHg 25%
    12:00 +38°C° 0 mm 3 mps 709 mmHg 27%
    13:00 +38°C° 0 mm 3 mps 708 mmHg 28%
    14:00 +37°C° 0 mm 2 mps 707 mmHg 29%
    15:00 +36°C° 0 mm 2 mps 707 mmHg 31%
    16:00 +35°C° 0 mm 2 mps 706 mmHg 33%
    17:00 +35°C° 0 mm 2 mps 706 mmHg 34%
    18:00 +32°C° 0 mm 2 mps 706 mmHg 39%
    19:00 +30°C° 0 mm 2 mps 707 mmHg 44%
    20:00 +28°C° 0 mm 1 mps 707 mmHg 49%
    21:00 +28°C° 0 mm 1 mps 707 mmHg 49%
    22:00 +28°C° 0 mm 1 mps 707 mmHg 50%
    23:00 +28°C° 0 mm 1 mps 707 mmHg 50%

    Day after tomorrow, 24 November, Sunday

    Time Temperature Precipitation Wind Pressure Humidity
    00:00 +26°C° 0 mm 0 mps 707 mmHg 51%
    01:00 +26°C° 0 mm 0 mps 706 mmHg 51%
    02:00 +25°C° 0 mm 0 mps 706 mmHg 51%
    03:00 +25°C° 0 mm 0 mps 706 mmHg 53%
    04:00 +24°C° 0 mm 0 mps 706 mmHg 54%
    05:00 +24°C° 0 mm 0 mps 707 mmHg 55%
    06:00 +28°C° 0 mm 1 mps 707 mmHg 50%
    07:00 +31°C° 0 mm 1 mps 708 mmHg 44%
    08:00 +33°C° 0 mm 1 mps 709 mmHg 39%
    09:00 +35°C° 0 mm 1 mps 709 mmHg 35%
    10:00 +37°C° 0 mm 2 mps 708 mmHg 32%
    11:00 +39°C° 0 mm 2 mps 708 mmHg 28%
    12:00 +39°C° 0 mm 2 mps 707 mmHg 29%
    13:00 +38°C° 0 mm 2 mps 707 mmHg 30%
    14:00 +38°C° 0 mm 2 mps 706 mmHg 31%
    15:00 +36°C° 0.2 mm 3 mps 705 mmHg 37%
    16:00 +34°C° 0.2 mm 3 mps 705 mmHg 43%
    17:00 +32°C° 0.2 mm 4 mps 705 mmHg 50%
    18:00 +30°C° 0.3 mm 3 mps 705 mmHg 54%
    19:00 +29°C° 0.3 mm 2 mps 705 mmHg 58%
    20:00 +27°C° 0.3 mm 1 mps 706 mmHg 62%
    21:00 +27°C° 0.2 mm 2 mps 706 mmHg 65%
    22:00 +26°C° 0.2 mm 3 mps 706 mmHg 67%
    23:00 +25°C° 0.2 mm 4 mps 706 mmHg 70%

    25 November, Monday

    Time Temperature Precipitation Wind Pressure Humidity
    00:00 +25°C° 0 mm 3 mps 705 mmHg 71%
    01:00 +25°C° 0 mm 3 mps 705 mmHg 71%
    02:00 +25°C° 0 mm 3 mps 705 mmHg 71%
    03:00 +25°C° 0 mm 3 mps 705 mmHg 72%
    04:00 +25°C° 0 mm 3 mps 706 mmHg 73%
    05:00 +25°C° 0 mm 4 mps 706 mmHg 73%
    06:00 +27°C° 0 mm 4 mps 706 mmHg 66%
    07:00 +29°C° 0 mm 5 mps 707 mmHg 59%
    08:00 +32°C° 0 mm 5 mps 708 mmHg 52%
    09:00 +34°C° 0 mm 4 mps 707 mmHg 46%
    10:00 +36°C° 0 mm 4 mps 707 mmHg 39%
    11:00 +38°C° 0 mm 3 mps 707 mmHg 33%
    12:00 +37°C° 0 mm 3 mps 706 mmHg 34%
    13:00 +37°C° 0 mm 3 mps 705 mmHg 35%
    14:00 +36°C° 0 mm 3 mps 705 mmHg 37%
    15:00 +36°C° 0.1 mm 3 mps 704 mmHg 38%
    16:00 +36°C° 0.1 mm 2 mps 704 mmHg 39%
    17:00 +35°C° 0.1 mm 2 mps 704 mmHg 40%
    18:00 +34°C° 0.2 mm 2 mps 704 mmHg 45%
    19:00 +31°C° 0.2 mm 1 mps 704 mmHg 51%
    20:00 +29°C° 0.2 mm 1 mps 704 mmHg 56%
    21:00 +28°C° 0.1 mm 2 mps 704 mmHg 58%
    22:00 +28°C° 0.1 mm 2 mps 704 mmHg 61%
    23:00 +27°C° 0.1 mm 2 mps 704 mmHg 63%

    26 November, Tuesday

    Time Temperature Precipitation Wind Pressure Humidity
    00:00 +27°C° 0 mm 2 mps 704 mmHg 64%
    01:00 +27°C° 0 mm 2 mps 704 mmHg 65%
    02:00 +27°C° 0 mm 2 mps 704 mmHg 66%
    03:00 +27°C° 0.1 mm 3 mps 704 mmHg 68%
    04:00 +26°C° 0.1 mm 3 mps 705 mmHg 70%
    05:00 +26°C° 0.1 mm 3 mps 705 mmHg 72%
    06:00 +28°C° 0 mm 4 mps 706 mmHg 66%
    07:00 +30°C° 0 mm 5 mps 706 mmHg 59%
    08:00 +33°C° 0 mm 5 mps 707 mmHg 52%
    09:00 +35°C° 0 mm 6 mps 707 mmHg 45%
    10:00 +38°C° 0 mm 6 mps 707 mmHg 39%
    11:00 +40°C° 0 mm 6 mps 706 mmHg 32%
    12:00 +40°C° 0 mm 6 mps 706 mmHg 32%
    13:00 +40°C° 0 mm 5 mps 705 mmHg 32%
    14:00 +40°C° 0 mm 5 mps 704 mmHg 31%
    15:00 +39°C° 0 mm 5 mps 704 mmHg 34%
    16:00 +38°C° 0 mm 6 mps 704 mmHg 37%
    17:00 +36°C° 0 mm 6 mps 703 mmHg 40%
    18:00 +34°C° 0.2 mm 5 mps 703 mmHg 46%
    19:00 +31°C° 0.2 mm 3 mps 703 mmHg 52%
    20:00 +29°C° 0.2 mm 2 mps 704 mmHg 59%
    21:00 +28°C° 0.4 mm 2 mps 704 mmHg 63%
    22:00 +28°C° 0.4 mm 3 mps 704 mmHg 67%
    23:00 +27°C° 0.4 mm 3 mps 704 mmHg 71%

    27 November, Wednesday

    Time Temperature Precipitation Wind Pressure Humidity
    00:00 +26°C° 0.6 mm 3 mps 704 mmHg 74%
    01:00 +26°C° 0.6 mm 3 mps 704 mmHg 76%
    02:00 +26°C° 0.6 mm 3 mps 704 mmHg 79%
    03:00 +25°C° 0 mm 3 mps 704 mmHg 80%
    04:00 +25°C° 0 mm 3 mps 704 mmHg 81%
    05:00 +25°C° 0 mm 3 mps 704 mmHg 82%
    06:00 +27°C° 0 mm 3 mps 705 mmHg 75%
    07:00 +28°C° 0 mm 4 mps 706 mmHg 68%
    08:00 +30°C° 0 mm 4 mps 707 mmHg 61%
    09:00 +33°C° 0 mm 5 mps 707 mmHg 55%
    10:00 +35°C° 0 mm 5 mps 707 mmHg 48%
    11:00 +37°C° 0 mm 5 mps 707 mmHg 41%
    12:00 +38°C° 0 mm 6 mps 706 mmHg 40%
    13:00 +38°C° 0 mm 6 mps 705 mmHg 39%
    14:00 +38°C° 0 mm 6 mps 705 mmHg 38%
    15:00 +34°C° 2.7 mm 5 mps 704 mmHg 54%
    16:00 +30°C° 2.7 mm 5 mps 703 mmHg 69%
    17:00 +26°C° 2.7 mm 5 mps 703 mmHg 84%
    18:00 +26°C° 2.8 mm 4 mps 704 mmHg 86%
    19:00 +26°C° 2.8 mm 3 mps 705 mmHg 87%
    20:00 +25°C° 2.8 mm 3 mps 706 mmHg 88%
    21:00 +25°C° 0 mm 3 mps 706 mmHg 89%
    22:00 +24°C° 0 mm 3 mps 706 mmHg 89%
    23:00 +22°C° 0 mm 3 mps 707 mmHg 90%
    Show more